TimeEST,TemperatureF,Dew PointF,Humidity,Sea Level PressureIn,VisibilityMPH,Wind Direction,Wind SpeedMPH,Gust SpeedMPH,PrecipitationIn,Events,Conditions,WindDirDegrees,DateUTC
12:15 AM,24.1,18.5,79,29.39,7.0,West,23.0,34.5,N/A,,Mostly Cloudy,280,2013-01-20 05:15:00
12:35 AM,23.0,18.5,83,29.38,7.0,West,24.2,36.8,N/A,,Overcast,280,2013-01-20 05:35:00
12:54 AM,23.4,19.4,85,29.38,10.0,West,24.2,36.8,N/A,,Overcast,270,2013-01-20 05:54:00
1:15 AM,24.4,20.3,84,29.38,5.0,West,25.3,38.0,N/A,,Overcast,270,2013-01-20 06:15:00
1:34 AM,24.6,20.8,86,29.39,7.0,NW,21.9,29.9,N/A,Snow,Light Snow,310,2013-01-20 06:34:00
1:54 AM,23.9,19.9,85,29.42,4.0,NW,20.7,35.7,N/A,Snow,Light Snow,310,2013-01-20 06:54:00
2:15 AM,22.1,16.5,79,29.46,5.0,WNW,21.9,35.7,N/A,Snow,Light Snow,300,2013-01-20 07:15:00
2:34 AM,19.4,13.1,76,29.50,5.0,NW,27.6,35.7,N/A,,Haze,310,2013-01-20 07:34:00
2:54 AM,18.3,12.0,76,29.53,10.0,WNW,23.0,35.7,N/A,,Overcast,300,2013-01-20 07:54:00
3:15 AM,17.4,11.8,79,29.56,10.0,WNW,16.1,33.4,N/A,,Overcast,300,2013-01-20 08:15:00
3:34 AM,16.7,10.9,78,29.59,7.0,WNW,23.0,33.4,N/A,Snow,Light Snow,300,2013-01-20 08:34:00
3:55 AM,15.6,9.9,78,29.61,5.0,NW,18.4,29.9,N/A,Snow,Light Snow,320,2013-01-20 08:55:00
4:15 AM,14.7,8.8,77,29.63,7.0,NW,19.6,32.2,N/A,,Overcast,310,2013-01-20 09:15:00
4:34 AM,13.8,7.2,75,29.66,7.0,NW,23.0,35.7,N/A,,Overcast,310,2013-01-20 09:34:00
4:54 AM,12.6,5.7,74,29.68,7.0,NW,19.6,38.0,N/A,,Overcast,310,2013-01-20 09:54:00
5:15 AM,12.2,6.8,79,29.71,7.0,NW,16.1,31.1,N/A,,Overcast,310,2013-01-20 10:15:00
5:34 AM,11.5,5.9,78,29.74,7.0,NW,23.0,31.1,N/A,,Overcast,320,2013-01-20 10:34:00
5:54 AM,10.9,5.0,77,29.76,10.0,NW,15.0,29.9,N/A,,Overcast,320,2013-01-20 10:54:00
6:15 AM,10.4,4.8,78,29.79,10.0,NW,15.0,28.8,N/A,,Overcast,310,2013-01-20 11:15:00
6:34 AM,10.8,5.5,79,29.80,10.0,NW,19.6,26.5,N/A,,Overcast,310,2013-01-20 11:34:00
6:55 AM,10.4,4.8,78,29.82,10.0,NW,13.8,24.2,N/A,,Overcast,310,2013-01-20 11:55:00
7:15 AM,10.4,5.0,79,29.83,7.0,NW,15.0,23.0,N/A,,Overcast,310,2013-01-20 12:15:00
7:34 AM,10.8,5.5,79,29.85,10.0,NW,8.1,23.0,N/A,,Overcast,310,2013-01-20 12:34:00
7:55 AM,10.6,6.4,83,29.86,1.0,NW,13.8,21.9,N/A,Snow,Light Snow,310,2013-01-20 12:55:00
8:15 AM,10.0,3.7,76,29.88,10.0,NNW,17.3,23.0,N/A,,Overcast,330,2013-01-20 13:15:00
8:34 AM,9.9,3.2,74,29.91,10.0,WNW,15.0,24.2,N/A,,Mostly Cloudy,300,2013-01-20 13:34:00
8:55 AM,9.7,3.9,77,29.93,7.0,WNW,16.1,23.0,N/A,,Scattered Clouds,300,2013-01-20 13:55:00
9:34 AM,10.6,3.9,75,29.97,7.0,WNW,15.0,20.7,N/A,,Mostly Cloudy,300,2013-01-20 14:34:00
9:55 AM,10.2,4.6,78,29.98,3.0,WNW,11.5,17.3,N/A,Snow,Light Snow,300,2013-01-20 14:55:00
10:15 AM,11.3,4.1,73,30.00,10.0,WNW,12.7,23.0,N/A,,Mostly Cloudy,300,2013-01-20 15:15:00
10:34 AM,11.7,3.9,71,30.00,10.0,WNW,12.7,23.0,N/A,,Mostly Cloudy,300,2013-01-20 15:34:00
10:55 AM,11.3,3.2,70,30.01,10.0,WNW,16.1,26.5,N/A,,Mostly Cloudy,300,2013-01-20 15:55:00
11:14 AM,12.4,3.2,67,30.01,10.0,WNW,16.1,24.2,N/A,,Mostly Cloudy,290,2013-01-20 16:14:00
11:34 AM,11.8,2.7,67,30.02,10.0,WNW,13.8,25.3,N/A,,Overcast,290,2013-01-20 16:34:00
11:55 AM,12.0,2.3,65,30.01,10.0,WNW,15.0,24.2,N/A,,Overcast,290,2013-01-20 16:55:00
12:14 PM,13.1,2.1,62,30.01,10.0,WNW,16.1,24.2,N/A,,Mostly Cloudy,290,2013-01-20 17:14:00
12:34 PM,14.4,3.4,62,30.00,10.0,WNW,16.1,24.2,N/A,,Mostly Cloudy,300,2013-01-20 17:34:00
12:55 PM,14.0,3.7,64,30.00,10.0,WNW,15.0,21.9,N/A,,Overcast,300,2013-01-20 17:55:00
1:14 PM,14.0,4.6,66,30.00,10.0,NW,12.7,18.4,N/A,,Overcast,320,2013-01-20 18:14:00
1:34 PM,13.1,4.5,68,30.00,5.0,WNW,9.2,19.6,N/A,,Haze,300,2013-01-20 18:34:00
1:55 PM,13.6,4.8,68,30.00,10.0,WNW,10.4,19.6,N/A,,Mostly Cloudy,290,2013-01-20 18:55:00
2:14 PM,12.7,4.5,70,30.01,10.0,West,16.1,20.7,N/A,,Mostly Cloudy,280,2013-01-20 19:14:00
2:34 PM,13.3,6.8,75,30.01,1.0,WNW,16.1,25.3,N/A,Snow,Light Snow,300,2013-01-20 19:34:00
2:55 PM,12.6,5.4,73,30.02,2.5,WNW,19.6,27.6,N/A,,Haze,290,2013-01-20 19:55:00
3:14 PM,13.6,3.7,65,30.02,10.0,WNW,15.0,26.5,N/A,,Mostly Cloudy,290,2013-01-20 20:14:00
3:35 PM,13.1,2.1,62,30.02,10.0,WNW,18.4,27.6,N/A,,Overcast,290,2013-01-20 20:35:00
4:14 PM,12.2,1.6,63,30.04,10.0,WNW,11.5,23.0,N/A,,Scattered Clouds,300,2013-01-20 21:14:00
4:35 PM,11.8,0.7,61,30.05,10.0,WNW,15.0,20.7,N/A,,Scattered Clouds,300,2013-01-20 21:35:00
4:54 PM,11.5,0.3,61,30.05,10.0,WNW,17.3,23.0,N/A,,Scattered Clouds,300,2013-01-20 21:54:00
5:14 PM,11.1,0.3,62,30.06,10.0,WNW,13.8,23.0,N/A,,Scattered Clouds,290,2013-01-20 22:14:00
5:35 PM,11.3,0.7,62,30.06,10.0,WNW,15.0,25.3,N/A,,Mostly Cloudy,300,2013-01-20 22:35:00
5:54 PM,10.8,0.3,63,30.06,10.0,NW,13.8,19.6,N/A,,Mostly Cloudy,310,2013-01-20 22:54:00
6:15 PM,10.2,0.5,65,30.07,10.0,WNW,11.5,23.0,N/A,,Clear,300,2013-01-20 23:15:00
6:35 PM,10.4,0.7,65,30.07,10.0,West,15.0,21.9,N/A,,Clear,280,2013-01-20 23:35:00
6:54 PM,10.0,1.0,67,30.07,10.0,WNW,12.7,19.6,N/A,,Scattered Clouds,300,2013-01-20 23:54:00
7:15 PM,10.0,1.4,68,30.07,10.0,WNW,12.7,20.7,N/A,,Mostly Cloudy,290,2013-01-21 00:15:00
7:54 PM,10.2,2.3,70,30.08,10.0,WNW,12.7,19.6,N/A,,Mostly Cloudy,290,2013-01-21 00:54:00
8:15 PM,10.4,2.7,71,30.07,10.0,West,15.0,24.2,N/A,,Overcast,280,2013-01-21 01:15:00
8:35 PM,10.4,2.3,70,30.06,10.0,West,15.0,21.9,N/A,,Overcast,280,2013-01-21 01:35:00
8:54 PM,10.4,2.1,69,30.06,10.0,WNW,17.3,21.9,N/A,,Overcast,290,2013-01-21 01:54:00
9:15 PM,10.2,1.8,69,30.05,10.0,West,15.0,23.0,N/A,,Overcast,280,2013-01-21 02:15:00
9:35 PM,10.2,1.8,69,30.05,10.0,West,13.8,20.7,N/A,,Overcast,280,2013-01-21 02:35:00
9:54 PM,10.2,1.2,67,30.05,10.0,West,15.0,23.0,N/A,,Overcast,280,2013-01-21 02:54:00
10:15 PM,10.2,1.8,69,30.05,10.0,WNW,11.5,20.7,N/A,,Overcast,290,2013-01-21 03:15:00
10:35 PM,9.9,0.7,66,30.04,10.0,WNW,10.4,23.0,N/A,,Scattered Clouds,290,2013-01-21 03:35:00
10:54 PM,9.1,1.4,71,30.04,10.0,WNW,10.4,16.1,N/A,,Mostly Cloudy,300,2013-01-21 03:54:00
11:15 PM,8.6,1.8,74,30.03,10.0,WNW,10.4,-,N/A,,Scattered Clouds,300,2013-01-21 04:15:00
11:35 PM,8.1,0.1,70,30.03,10.0,WNW,10.4,17.3,N/A,,Clear,300,2013-01-21 04:35:00
11:54 PM,8.1,0.3,71,30.02,10.0,WNW,11.5,-,N/A,,Clear,300,2013-01-21 04:54:00